Home   Weather   Aalen   Past weeks

Flag for Germany Past Weather in Aalen, Baden-Württemberg, Germany — Yesterday and Last 2 Weeks

Now
55 °F

Light rain. Broken clouds.


Feels Like: 55 °F
Forecast: 51 / 65 °F
Wind: 5 mph from Northwest

Location: Niederstetten

Current Time: Sep 26, 2016 at 12:40:10 PM

Latest Report: Sep 26, 2016 at 11:20 AM


Visibility: 5 mi

Pressure: 30.21 "Hg

Humidity: 94%

Dew Point: 54 °F

Location of AalenLocation

Past Weather in Aalen — Graph

°F

Aalen Temperature Yesterday

Maximum temperature yesterday: 73 °F (at 4:20 PM)
Minimum temperature yesterday: 50 °F (at 7:20 AM)
Average temperature yesterday: 61 °F

High & Low Weather Summary for the Past Weeks

 TemperatureHumidityPressure
High86 °F (Sep 12, 3:20 PM)100% (Sep 18, 7:20 PM)30.33 "Hg (Sep 18, 7:20 PM)
Low43 °F (Sep 22, 5:20 AM)31% (Sep 12, 3:20 PM)29.86 "Hg (Sep 15, 5:20 AM)
Average62 °F70%30.07 "Hg
* Reported Sep 11 10:20 AM — Sep 26 10:20 AM, Aalen, Weather by CustomWeather, © 2016

Note: Actual official high and low records may vary slightly from our data, if they occured in-between our weather recording intervals... More about our weather records

Advertising

Aalen Weather History for the Previous 24 Hours

Scroll right to see more
 ConditionsComfort  
Time TempWeatherWind HumidityBarometerVisibility
10:20 AM
Mon, Sep 26
57 °FLight rain. Broken clouds.3 mph88%30.21 "Hg5 mi
9:20 AM57 °FBroken clouds.3 mph88%30.18 "Hg6 mi
8:20 AM55 °FPartly sunny.2 mph88%30.18 "HgN/A
7:20 AM55 °FPartly sunny.5 mph88%30.18 "HgN/A
6:20 AM57 °FPassing clouds.5 mph82%30.15 "HgN/A
5:20 AM57 °FPassing clouds.3 mph82%30.15 "HgN/A
4:20 AM59 °FPassing clouds.5 mph72%30.15 "HgN/A
3:20 AM57 °FPassing clouds.3 mph77%30.15 "HgN/A
2:20 AM57 °FPassing clouds.No wind77%30.15 "HgN/A
1:20 AM57 °FPassing clouds.3 mph77%30.15 "HgN/A
12:20 AM59 °FPassing clouds.3 mph72%30.15 "HgN/A
11:20 PM
Sun, Sep 25
57 °FPassing clouds.1 mph77%30.15 "HgN/A
10:20 PM59 °FPassing clouds.2 mph72%30.15 "HgN/A
9:20 PM61 °FPassing clouds.1 mph72%30.15 "HgN/A
8:20 PM63 °FPassing clouds.2 mph68%30.12 "HgN/A
7:20 PM66 °FPassing clouds.5 mph56%30.12 "HgN/A
6:20 PM72 °FPassing clouds.5 mph47%30.12 "HgN/A
5:20 PM72 °FPassing clouds.5 mph44%30.12 "HgN/A
4:20 PM73 °FPassing clouds.5 mph41%30.09 "HgN/A
3:20 PM72 °FPassing clouds.5 mph44%30.12 "HgN/A
2:20 PM70 °FPassing clouds.6 mph43%30.12 "HgN/A
1:20 PM70 °FPassing clouds.2 mph46%30.15 "HgN/A
12:20 PM68 °FPassing clouds.3 mph49%30.15 "HgN/A
Weather by CustomWeather, © 2016

See weather overviewHow to use our weather pages